Flag for Germany Weather past 2 weeks in Bremen, Bremen, Germany

Now
50 °F

Passing clouds.


Feels Like: 45 °F
Forecast: 47 / 56 °F
Wind: 14 mph from Southwest

Location: Bremen Airport

Current Time: May 30, 2015 at 12:54:13 AM

Latest Report: May 30, 2015 at 12:20 AM


Visibility: N/A

Pressure: 29.68 "Hg

Humidity: 82%

Dew point: 45 °F

Location of BremenLocation

Historic Weather in Bremen — Graph

°F

Bremen temperature yesterday

Maximum temperature yesterday: 61 °F (at 2:20 PM)
Minimum temperature yesterday: 39 °F (at 3:20 AM)
Average temperature yesterday: 52 °F

Past Weeks' High & Low Weather Summary

 TemperatureHumidityPressure
High66 °F (May 22, 1:50 PM)100% (May 16, 1:50 AM)30.30 "Hg (May 16, 1:50 AM)
Low34 °F (May 16, 5:20 AM)36% (May 25, 4:50 PM)29.59 "Hg (May 18, 7:20 PM)
Average52 °F74%30.02 "Hg
* Reported May 15 12:20 AM — May 30 12:20 AM, Bremen, Weather by CustomWeather, © 2015

Note: Actual official high and low records may vary slightly from our data, if they occured in-between our weather recording intervals... More about our weather records

Advertising

Bremen weather history for previous 24 hours

 ConditionsComfort  
Time TempWeatherWind HumidityBarometerVisibility
12:20 AM
Sat, May 30
50 °FPassing clouds.14 mph82%29.68 "HgN/A
11:20 PM
Fri, May 29
54 °FLight rain. Passing clouds.23 mph72%29.65 "HgN/A
10:20 PM57 °FLight rain. Partly sunny.12 mph55%29.65 "HgN/A
9:50 PM57 °FSunny.8 mph59%29.65 "Hg10 mi
9:20 PM55 °FLight rain. Clear.2 mph77%29.65 "HgN/A
8:50 PM55 °FSunny.2 mph77%29.65 "Hg10 mi
8:20 PM55 °FPassing clouds.5 mph72%29.68 "HgN/A
7:50 PM57 °FPassing clouds.9 mph67%29.68 "HgN/A
7:20 PM61 °FBroken clouds.12 mph48%29.68 "HgN/A
6:50 PM61 °FPartly sunny.14 mph48%29.68 "HgN/A
6:20 PM61 °FBroken clouds.16 mph48%29.68 "HgN/A
5:50 PM61 °FBroken clouds.16 mph48%29.68 "HgN/A
5:20 PM61 °FPartly sunny.16 mph48%29.68 "HgN/A
4:50 PM61 °FBroken clouds.20 mph48%29.71 "HgN/A
4:20 PM61 °FBroken clouds.16 mph52%29.71 "HgN/A
3:50 PM61 °FBroken clouds.16 mph55%29.71 "HgN/A
3:20 PM61 °FPartly sunny.15 mph55%29.71 "HgN/A
2:50 PM61 °FPartly sunny.13 mph48%29.74 "HgN/A
2:20 PM61 °FPartly sunny.13 mph55%29.74 "HgN/A
1:50 PM59 °FBroken clouds.14 mph55%29.77 "HgN/A
1:20 PM59 °FBroken clouds.14 mph59%29.77 "HgN/A
12:50 PM59 °FBroken clouds.14 mph55%29.80 "HgN/A
12:20 PM59 °FBroken clouds.13 mph55%29.80 "HgN/A
11:50 AM57 °FBroken clouds.12 mph63%29.83 "HgN/A
11:20 AM57 °FPartly sunny.15 mph63%29.83 "HgN/A
10:50 AM59 °FPartly sunny.13 mph63%29.83 "HgN/A
10:20 AM57 °FSunny.10 mph59%29.86 "Hg10 mi
9:50 AM55 °FSunny.9 mph63%29.86 "Hg10 mi
9:20 AM55 °FSunny.9 mph67%29.86 "Hg10 mi
8:50 AM54 °FPassing clouds.8 mph77%29.86 "HgN/A
8:20 AM50 °FPassing clouds.6 mph82%29.89 "HgN/A
7:50 AM48 °FSunny.3 mph87%29.89 "Hg10 mi
7:20 AM46 °FSunny.3 mph87%29.89 "Hg10 mi
6:50 AM45 °FSunny.3 mph93%29.89 "Hg10 mi
6:20 AM41 °FSunny.3 mph93%29.89 "Hg10 mi
5:50 AM41 °FFog.3 mph93%29.89 "HgN/A
5:20 AM39 °FFog.3 mph100%29.89 "HgN/A
4:50 AM39 °FFog.3 mph100%29.89 "HgN/A
4:20 AM39 °FFog.3 mph100%29.89 "HgN/A
3:50 AM39 °FFog.2 mph100%29.92 "HgN/A
3:20 AM39 °FFog.3 mph100%29.92 "HgN/A
2:50 AM41 °FFog.3 mph100%29.92 "HgN/A
2:20 AM41 °FFog.1 mph100%29.92 "HgN/A
1:50 AM41 °FFog.2 mph100%29.92 "HgN/A
1:20 AM41 °FFog.No wind100%29.92 "HgN/A
12:50 AM41 °FFog.2 mph93%29.92 "HgN/A
12:20 AM41 °FFog.2 mph100%29.92 "HgN/A
Weather by CustomWeather, © 2015

See weather overviewHow to use our weather pages